This demonstration page uses our WeatherBlox Daily Observations layout. Learn more.

Left ArrowRight Arrow

Hourly Observations for October 4, 2018

Temp ( °F °C ) Dew Point ( °F °C ) Humidity (%) Winds ( mph kmh ) Pressure ( in mb ) Visibility ( mi km ) Precip ( " mm )
12:51 am 00:51 Clear 69 20.6 61 16.1 76 76 WNW 5 7 29.85 1011 10 16 0.00 0.00
1:51 am 01:51 Clear 67 19.4 61 16.1 81 81 Calm 29.85 1011 10 16 0.00 0.00
2:51 am 02:51 Clear 65 18.3 60 15.6 84 84 Calm 29.84 1011 10 16 0.00 0.00
3:51 am 03:51 Clear 64 17.8 59 15 84 84 E 6 9 29.84 1011 10 16 0.00 0.00
4:51 am 04:51 Clear 65 18.3 60 15.6 84 84 E 5 7 29.85 1011 10 16 0.00 0.00
5:51 am 05:51 Clear 63 17.2 59 15 87 87 SSE 6 9 29.87 1012 10 16 0.00 0.00
6:51 am 06:51 Sunny 64 17.8 60 15.6 87 87 N 5 7 29.90 1012 10 16 0.00 0.00
7:51 am 07:51 Mostly Sunny 69 20.6 60 15.6 73 73 WSW 5 7 29.91 1013 10 16 0.00 0.00
8:51 am 08:51 Sunny 73 22.8 61 16.1 66 66 WSW 3 6 29.92 1013 10 16 0.00 0.00
9:51 am 09:51 Sunny 76 24.4 61 16.1 60 60 S 5 7 29.91 1013 10 16 0.00 0.00
10:51 am 10:51 Sunny 82 27.8 59 15 46 46 E 5 7 29.88 1012 10 16 0.00 0.00
11:51 am 11:51 Sunny 82 27.8 55 12.8 40 40 Calm 29.87 1011 10 16 0.00 0.00
12:51 pm 12:51 Sunny 86 30 53 11.7 32 32 VRB 5 7 29.83 1010 10 16 0.00 0.00
1:51 pm 13:51 Sunny 85 29.4 50 10 30 30 Calm 29.80 1009 10 16 0.00 0.00
2:51 pm 14:51 Sunny 86 30 50 10 29 29 VRB 3 6 29.79 1009 10 16 0.00 0.00
3:51 pm 15:51 Sunny 86 30 49 9.4 28 28 W 10 17 29.78 1009 10 16 0.00 0.00
4:51 pm 16:51 Sunny 86 30 45 7.2 24 24 W 9 15 29.77 1008 10 16 0.00 0.00
5:51 pm 17:51 Sunny 82 27.8 40 4.4 22 22 NW 8 13 29.78 1008 10 16 0.00 0.00
6:51 pm 18:51 Clear 79 26.1 46 7.8 31 31 NW 10 17 29.79 1009 10 16 0.00 0.00
7:51 pm 19:51 Clear 76 24.4 48 8.9 37 37 NW 10 17 29.79 1009 10 16 0.00 0.00
8:51 pm 20:51 Clear 72 22.2 48 8.9 43 43 W 8 13 29.80 1009 10 16 0.00 0.00
9:51 pm 21:51 Clear 70 21.1 49 9.4 47 47 W 8 13 29.80 1009 10 16 0.00 0.00
10:51 pm 22:51 Clear 67 19.4 48 8.9 51 51 E 7 11 29.81 1009 10 16 0.00 0.00
11:51 pm 23:51 Clear 66 18.9 48 8.9 52 52 Calm 29.81 1010 10 16 0.00 0.00

Powered by AerisWeather